Year,Month,Day,Hour,Minute,Value (Times are PST for temperature in C)
2006,05,07,00,00,7.90
2006,05,07,00,01,7.90
2006,05,07,00,02,7.80
2006,05,07,00,03,7.80
2006,05,07,00,04,7.80
2006,05,07,00,05,7.80
2006,05,07,00,06,7.80
2006,05,07,00,07,7.80
2006,05,07,00,08,7.80
2006,05,07,00,09,7.80
2006,05,07,00,10,7.80
2006,05,07,00,11,7.80
2006,05,07,00,12,7.80
2006,05,07,00,13,7.80
2006,05,07,00,14,7.80
2006,05,07,00,15,7.80
2006,05,07,00,16,7.80
2006,05,07,00,17,7.80
2006,05,07,00,18,7.80
2006,05,07,00,19,7.80
2006,05,07,00,20,7.80
2006,05,07,00,21,7.80
2006,05,07,00,22,7.80
2006,05,07,00,23,7.80
2006,05,07,00,24,7.80
2006,05,07,00,25,7.80
2006,05,07,00,26,7.80
2006,05,07,00,27,7.80
2006,05,07,00,28,7.80
2006,05,07,00,29,7.80
2006,05,07,00,30,7.80
2006,05,07,00,31,7.80
2006,05,07,00,32,7.80
2006,05,07,00,33,7.80
2006,05,07,00,34,7.80
2006,05,07,00,35,7.80
2006,05,07,00,36,7.80
2006,05,07,00,37,7.80
2006,05,07,00,38,7.80
2006,05,07,00,39,7.80
2006,05,07,00,40,7.80
2006,05,07,00,41,7.80
2006,05,07,00,42,7.80
2006,05,07,00,43,7.80
2006,05,07,00,44,7.80
2006,05,07,00,45,7.80
2006,05,07,00,46,7.80
2006,05,07,00,47,7.80
2006,05,07,00,48,7.80
2006,05,07,00,49,7.80
2006,05,07,00,50,7.80
2006,05,07,00,51,7.80
2006,05,07,00,52,7.80
2006,05,07,00,53,7.80
2006,05,07,00,54,7.80
2006,05,07,00,55,7.80
2006,05,07,00,56,7.80
2006,05,07,00,57,7.80
2006,05,07,00,58,7.80
2006,05,07,00,59,7.80
2006,05,07,01,00,7.80
2006,05,07,01,01,7.80
2006,05,07,01,02,7.70
2006,05,07,01,03,7.70
2006,05,07,01,04,7.70
2006,05,07,01,05,7.70
2006,05,07,01,06,7.60
2006,05,07,01,07,7.60
2006,05,07,01,08,7.60
2006,05,07,01,09,7.60
2006,05,07,01,10,7.60
2006,05,07,01,11,7.60
2006,05,07,01,12,7.50
2006,05,07,01,13,7.50
2006,05,07,01,14,7.50
2006,05,07,01,15,7.50
2006,05,07,01,16,7.50
2006,05,07,01,17,7.40
2006,05,07,01,18,7.40
2006,05,07,01,19,7.40
2006,05,07,01,20,7.40
2006,05,07,01,21,7.40
2006,05,07,01,22,7.40
2006,05,07,01,23,7.40
2006,05,07,01,24,7.40
2006,05,07,01,25,7.40
2006,05,07,01,26,7.40
2006,05,07,01,27,7.40
2006,05,07,01,28,7.40
2006,05,07,01,29,7.40
2006,05,07,01,30,7.50
2006,05,07,01,31,7.50
2006,05,07,01,32,7.50
2006,05,07,01,33,7.50
2006,05,07,01,34,7.50
2006,05,07,01,35,7.50
2006,05,07,01,36,7.50
2006,05,07,01,37,7.50
2006,05,07,01,38,7.50
2006,05,07,01,39,7.50
2006,05,07,01,40,7.50
2006,05,07,01,41,7.50
2006,05,07,01,42,7.50
2006,05,07,01,43,7.50
2006,05,07,01,44,7.50
2006,05,07,01,45,7.50
2006,05,07,01,46,7.50
2006,05,07,01,47,7.50
2006,05,07,01,48,7.50
2006,05,07,01,49,7.50
2006,05,07,01,50,7.50
2006,05,07,01,51,7.60
2006,05,07,01,52,7.60
2006,05,07,01,53,7.60
2006,05,07,01,54,7.70
2006,05,07,01,55,7.70
2006,05,07,01,56,7.80
2006,05,07,01,57,7.80
2006,05,07,01,58,7.80
2006,05,07,01,59,7.80
2006,05,07,02,00,7.80
2006,05,07,02,01,7.80
2006,05,07,02,02,7.80
2006,05,07,02,03,7.80
2006,05,07,02,04,7.70
2006,05,07,02,05,7.70
2006,05,07,02,06,7.70
2006,05,07,02,07,7.70
2006,05,07,02,08,7.70
2006,05,07,02,09,7.70
2006,05,07,02,10,7.70
2006,05,07,02,11,7.70
2006,05,07,02,12,7.70
2006,05,07,02,13,7.70
2006,05,07,02,14,7.70
2006,05,07,02,15,7.70
2006,05,07,02,16,7.70
2006,05,07,02,17,7.70
2006,05,07,02,18,7.70
2006,05,07,02,19,7.70
2006,05,07,02,20,7.70
2006,05,07,02,21,7.70
2006,05,07,02,22,7.70
2006,05,07,02,23,7.70
2006,05,07,02,24,7.70
2006,05,07,02,25,7.70
2006,05,07,02,26,7.70
2006,05,07,02,27,7.70
2006,05,07,02,28,7.70
2006,05,07,02,29,7.70
2006,05,07,02,30,7.70
2006,05,07,02,31,7.70
2006,05,07,02,32,7.70
2006,05,07,02,33,7.70
2006,05,07,02,34,7.70
2006,05,07,02,35,7.70
2006,05,07,02,36,7.60
2006,05,07,02,37,7.60
2006,05,07,02,38,7.60
2006,05,07,02,39,7.60
2006,05,07,02,40,7.60
2006,05,07,02,41,7.60
2006,05,07,02,42,7.60
2006,05,07,02,43,7.60
2006,05,07,02,44,7.70
2006,05,07,02,45,7.60
2006,05,07,02,46,7.60
2006,05,07,02,47,7.60
2006,05,07,02,48,7.60
2006,05,07,02,49,7.60
2006,05,07,02,50,7.60
2006,05,07,02,51,7.60
2006,05,07,02,52,7.60
2006,05,07,02,53,7.60
2006,05,07,02,54,7.60
2006,05,07,02,55,7.60
2006,05,07,02,56,7.60
2006,05,07,02,57,7.60
2006,05,07,02,58,7.60
2006,05,07,02,59,7.60
2006,05,07,03,00,7.50
2006,05,07,03,01,7.50
2006,05,07,03,02,7.50
2006,05,07,03,03,7.50
2006,05,07,03,04,7.50
2006,05,07,03,05,7.50
2006,05,07,03,06,7.50
2006,05,07,03,07,7.50
2006,05,07,03,08,7.40
2006,05,07,03,09,7.40
2006,05,07,03,10,7.40
2006,05,07,03,11,7.40
2006,05,07,03,12,7.40
2006,05,07,03,13,7.40
2006,05,07,03,14,7.40
2006,05,07,03,15,7.40
2006,05,07,03,16,7.40
2006,05,07,03,17,7.30
2006,05,07,03,18,7.30
2006,05,07,03,19,7.30
2006,05,07,03,20,7.30
2006,05,07,03,21,7.30
2006,05,07,03,22,7.30
2006,05,07,03,23,7.30
2006,05,07,03,24,7.30
2006,05,07,03,25,7.30
2006,05,07,03,26,7.30
2006,05,07,03,27,7.30
2006,05,07,03,28,7.30
2006,05,07,03,29,7.30
2006,05,07,03,30,7.30
2006,05,07,03,31,7.30
2006,05,07,03,32,7.30
2006,05,07,03,33,7.30
2006,05,07,03,34,7.30
2006,05,07,03,35,7.30
2006,05,07,03,36,7.30
2006,05,07,03,37,7.30
2006,05,07,03,38,7.30
2006,05,07,03,39,7.30
2006,05,07,03,40,7.30
2006,05,07,03,41,7.30
2006,05,07,03,42,7.30
2006,05,07,03,43,7.20
2006,05,07,03,44,7.20
2006,05,07,03,45,7.20
2006,05,07,03,46,7.20
2006,05,07,03,47,7.20
2006,05,07,03,48,7.20
2006,05,07,03,49,7.20
2006,05,07,03,50,7.20
2006,05,07,03,51,7.20
2006,05,07,03,52,7.20
2006,05,07,03,53,7.20
2006,05,07,03,54,7.20
2006,05,07,03,55,7.20
2006,05,07,03,56,7.20
2006,05,07,03,57,7.20
2006,05,07,03,58,7.20
2006,05,07,03,59,7.10
2006,05,07,04,00,7.10
2006,05,07,04,01,7.10
2006,05,07,04,02,7.10
2006,05,07,04,03,7.10
2006,05,07,04,04,7.10
2006,05,07,04,05,7.10
2006,05,07,04,06,7.10
2006,05,07,04,07,7.10
2006,05,07,04,08,7.10
2006,05,07,04,09,7.10
2006,05,07,04,10,7.10
2006,05,07,04,11,7.10
2006,05,07,04,12,7.10
2006,05,07,04,13,7.10
2006,05,07,04,14,7.10
2006,05,07,04,15,7.10
2006,05,07,04,16,7.00
2006,05,07,04,17,7.00
2006,05,07,04,18,7.00
2006,05,07,04,19,7.00
2006,05,07,04,20,7.00
2006,05,07,04,21,7.00
2006,05,07,04,22,7.00
2006,05,07,04,23,7.00
2006,05,07,04,24,7.00
2006,05,07,04,25,7.00
2006,05,07,04,26,7.00
2006,05,07,04,27,7.00
2006,05,07,04,28,6.90
2006,05,07,04,29,6.90
2006,05,07,04,30,6.90
2006,05,07,04,31,6.90
2006,05,07,04,32,6.90
2006,05,07,04,33,6.90
2006,05,07,04,34,6.90
2006,05,07,04,35,6.90
2006,05,07,04,36,6.90
2006,05,07,04,37,6.90
2006,05,07,04,38,6.90
2006,05,07,04,39,6.90
2006,05,07,04,40,6.80
2006,05,07,04,41,6.80
2006,05,07,04,42,6.80
2006,05,07,04,43,6.80
2006,05,07,04,44,6.80
2006,05,07,04,45,6.80
2006,05,07,04,46,6.80
2006,05,07,04,47,6.80
2006,05,07,04,48,6.80
2006,05,07,04,49,6.80
2006,05,07,04,50,6.80
2006,05,07,04,51,6.80
2006,05,07,04,52,6.80
2006,05,07,04,53,6.80
2006,05,07,04,54,6.80
2006,05,07,04,55,6.80
2006,05,07,04,56,6.80
2006,05,07,04,57,6.80
2006,05,07,04,58,6.80
2006,05,07,04,59,6.80
2006,05,07,05,00,6.80
2006,05,07,05,01,6.80
2006,05,07,05,02,6.80
2006,05,07,05,03,6.80
2006,05,07,05,04,6.80
2006,05,07,05,05,6.80
2006,05,07,05,06,6.80
2006,05,07,05,07,6.80
2006,05,07,05,08,6.80
2006,05,07,05,09,6.80
2006,05,07,05,10,6.80
2006,05,07,05,11,6.80
2006,05,07,05,12,6.80
2006,05,07,05,13,6.80
2006,05,07,05,14,6.80
2006,05,07,05,15,6.80
2006,05,07,05,16,6.80
2006,05,07,05,17,6.80
2006,05,07,05,18,6.80
2006,05,07,05,19,6.90
2006,05,07,05,20,6.90
2006,05,07,05,21,6.90
2006,05,07,05,22,6.90
2006,05,07,05,23,6.90
2006,05,07,05,24,6.90
2006,05,07,05,25,6.90
2006,05,07,05,26,6.90
2006,05,07,05,27,6.90
2006,05,07,05,28,6.90
2006,05,07,05,29,6.90
2006,05,07,05,30,6.90
2006,05,07,05,31,6.90
2006,05,07,05,32,6.90
2006,05,07,05,33,6.90
2006,05,07,05,34,6.90
2006,05,07,05,35,6.90
2006,05,07,05,36,6.90
2006,05,07,05,37,6.90
2006,05,07,05,38,6.90
2006,05,07,05,39,6.90
2006,05,07,05,40,6.90
2006,05,07,05,41,6.90
2006,05,07,05,42,6.90
2006,05,07,05,43,6.90
2006,05,07,05,44,6.90
2006,05,07,05,45,6.90
2006,05,07,05,46,7.00
2006,05,07,05,47,7.00
2006,05,07,05,48,7.00
2006,05,07,05,49,7.00
2006,05,07,05,50,7.00
2006,05,07,05,51,7.00
2006,05,07,05,52,7.00
2006,05,07,05,53,7.00
2006,05,07,05,54,7.00
2006,05,07,05,55,7.00
2006,05,07,05,56,7.00
2006,05,07,05,57,7.10
2006,05,07,05,58,7.10
2006,05,07,05,59,7.10
2006,05,07,06,00,7.10
2006,05,07,06,01,7.10
2006,05,07,06,02,7.10
2006,05,07,06,03,7.10
2006,05,07,06,04,7.10
2006,05,07,06,05,7.10
2006,05,07,06,06,7.20
2006,05,07,06,07,7.20
2006,05,07,06,08,7.20
2006,05,07,06,09,7.20
2006,05,07,06,10,7.20
2006,05,07,06,11,7.20
2006,05,07,06,12,7.20
2006,05,07,06,13,7.30
2006,05,07,06,14,7.30
2006,05,07,06,15,7.30
2006,05,07,06,16,7.30
2006,05,07,06,17,7.30
2006,05,07,06,18,7.30
2006,05,07,06,19,7.30
2006,05,07,06,20,7.30
2006,05,07,06,21,7.30
2006,05,07,06,22,7.30
2006,05,07,06,23,7.30
2006,05,07,06,24,7.30
2006,05,07,06,25,7.30
2006,05,07,06,26,7.30
2006,05,07,06,27,7.30
2006,05,07,06,28,7.30
2006,05,07,06,29,7.30
2006,05,07,06,30,7.30
2006,05,07,06,31,7.30
2006,05,07,06,32,7.30
2006,05,07,06,33,7.40
2006,05,07,06,34,7.40
2006,05,07,06,35,7.40
2006,05,07,06,36,7.40
2006,05,07,06,37,7.40
2006,05,07,06,38,7.40
2006,05,07,06,39,7.40
2006,05,07,06,40,7.40
2006,05,07,06,41,7.40
2006,05,07,06,42,7.40
2006,05,07,06,43,7.40
2006,05,07,06,44,7.40
2006,05,07,06,45,7.40
2006,05,07,06,46,7.40
2006,05,07,06,47,7.40
2006,05,07,06,48,7.40
2006,05,07,06,49,7.40
2006,05,07,06,50,7.40
2006,05,07,06,51,7.40
2006,05,07,06,52,7.40
2006,05,07,06,53,7.40
2006,05,07,06,54,7.50
2006,05,07,06,55,7.50
2006,05,07,06,56,7.50
2006,05,07,06,57,7.50
2006,05,07,06,58,7.50
2006,05,07,06,59,7.50
2006,05,07,07,00,7.50
2006,05,07,07,01,7.50
2006,05,07,07,02,7.50
2006,05,07,07,03,7.50
2006,05,07,07,04,7.50
2006,05,07,07,05,7.50
2006,05,07,07,06,7.50
2006,05,07,07,07,7.60
2006,05,07,07,08,7.60
2006,05,07,07,09,7.60
2006,05,07,07,10,7.60
2006,05,07,07,11,7.60
2006,05,07,07,12,7.60
2006,05,07,07,13,7.60
2006,05,07,07,14,7.60
2006,05,07,07,15,7.60
2006,05,07,07,16,7.60
2006,05,07,07,17,7.60
2006,05,07,07,18,7.60
2006,05,07,07,19,7.60
2006,05,07,07,20,7.60
2006,05,07,07,21,7.60
2006,05,07,07,22,7.60
2006,05,07,07,23,7.60
2006,05,07,07,24,7.60
2006,05,07,07,25,7.60
2006,05,07,07,26,7.60
2006,05,07,07,27,7.60
2006,05,07,07,28,7.60
2006,05,07,07,29,7.60
2006,05,07,07,30,7.60
2006,05,07,07,31,7.70
2006,05,07,07,32,7.70
2006,05,07,07,33,7.70
2006,05,07,07,34,7.70
2006,05,07,07,35,7.70
2006,05,07,07,36,7.70
2006,05,07,07,37,7.70
2006,05,07,07,38,7.70
2006,05,07,07,39,7.70
2006,05,07,07,40,7.70
2006,05,07,07,41,7.70
2006,05,07,07,42,7.70
2006,05,07,07,43,7.70
2006,05,07,07,44,7.70
2006,05,07,07,45,7.70
2006,05,07,07,46,7.70
2006,05,07,07,47,7.70
2006,05,07,07,48,7.70
2006,05,07,07,49,7.70
2006,05,07,07,50,7.80
2006,05,07,07,51,7.80
2006,05,07,07,52,7.80
2006,05,07,07,53,7.80
2006,05,07,07,54,7.80
2006,05,07,07,55,7.80
2006,05,07,07,56,7.80
2006,05,07,07,57,7.80
2006,05,07,07,58,7.80
2006,05,07,07,59,7.80
2006,05,07,08,00,7.80
2006,05,07,08,01,7.80
2006,05,07,08,02,7.80
2006,05,07,08,03,7.80
2006,05,07,08,04,7.80
2006,05,07,08,05,7.80
2006,05,07,08,06,7.80
2006,05,07,08,07,7.80
2006,05,07,08,08,7.80
2006,05,07,08,09,7.80
2006,05,07,08,10,7.80
2006,05,07,08,11,7.80
2006,05,07,08,12,7.80
2006,05,07,08,13,7.80
2006,05,07,08,14,7.90
2006,05,07,08,15,7.90
2006,05,07,08,16,7.90
2006,05,07,08,17,7.90
2006,05,07,08,18,7.90
2006,05,07,08,19,7.90
2006,05,07,08,20,7.90
2006,05,07,08,21,7.90
2006,05,07,08,22,7.90
2006,05,07,08,23,7.90
2006,05,07,08,24,7.90
2006,05,07,08,25,7.90
2006,05,07,08,26,7.90
2006,05,07,08,27,8.00
2006,05,07,08,28,8.00
2006,05,07,08,29,8.00
2006,05,07,08,30,8.00
2006,05,07,08,31,8.00
2006,05,07,08,32,8.00
2006,05,07,08,33,8.10
2006,05,07,08,34,8.10
2006,05,07,08,35,8.10
2006,05,07,08,36,8.10
2006,05,07,08,37,8.10
2006,05,07,08,38,8.10
2006,05,07,08,39,8.10
2006,05,07,08,40,8.10
2006,05,07,08,41,8.10
2006,05,07,08,42,8.10
2006,05,07,08,43,8.20
2006,05,07,08,44,8.20
2006,05,07,08,45,8.20
2006,05,07,08,46,8.20
2006,05,07,08,47,8.20
2006,05,07,08,48,8.20
2006,05,07,08,49,8.20
2006,05,07,08,50,8.20
2006,05,07,08,51,8.20
2006,05,07,08,52,8.20
2006,05,07,08,53,8.20
2006,05,07,08,54,8.20
2006,05,07,08,55,8.20
2006,05,07,08,56,8.20
2006,05,07,08,57,8.30
2006,05,07,08,58,8.30
2006,05,07,08,59,8.30
2006,05,07,09,00,8.30
2006,05,07,09,01,8.30
2006,05,07,09,02,8.20
2006,05,07,09,03,8.20
2006,05,07,09,04,8.20
2006,05,07,09,05,8.20
2006,05,07,09,06,8.20
2006,05,07,09,07,8.20
2006,05,07,09,08,8.20
2006,05,07,09,09,8.20
2006,05,07,09,10,8.20
2006,05,07,09,11,8.20
2006,05,07,09,12,8.20
2006,05,07,09,13,8.20
2006,05,07,09,14,8.20
2006,05,07,09,15,8.30
2006,05,07,09,16,8.30
2006,05,07,09,17,8.30
2006,05,07,09,18,8.30
2006,05,07,09,19,8.30
2006,05,07,09,20,8.30
2006,05,07,09,21,8.40
2006,05,07,09,22,8.40
2006,05,07,09,23,8.40
2006,05,07,09,24,8.40
2006,05,07,09,25,8.40
2006,05,07,09,26,8.40
2006,05,07,09,27,8.40
2006,05,07,09,28,8.40
2006,05,07,09,29,8.40
2006,05,07,09,30,8.40
2006,05,07,09,31,8.40
2006,05,07,09,32,8.40
2006,05,07,09,33,8.30
2006,05,07,09,34,8.30
2006,05,07,09,35,8.30
2006,05,07,09,36,8.30
2006,05,07,09,37,8.30
2006,05,07,09,38,8.30
2006,05,07,09,39,8.30
2006,05,07,09,40,8.30
2006,05,07,09,41,8.30
2006,05,07,09,42,8.30
2006,05,07,09,43,8.30
2006,05,07,09,44,8.40
2006,05,07,09,45,8.40
2006,05,07,09,46,8.40
2006,05,07,09,47,8.40
2006,05,07,09,48,8.40
2006,05,07,09,49,8.40
2006,05,07,09,50,8.40
2006,05,07,09,51,8.40
2006,05,07,09,52,8.40
2006,05,07,09,53,8.40
2006,05,07,09,54,8.40
2006,05,07,09,55,8.40
2006,05,07,09,56,8.40
2006,05,07,09,57,8.50
2006,05,07,09,58,8.50
2006,05,07,09,59,8.50
2006,05,07,10,00,8.50
2006,05,07,10,01,8.50
2006,05,07,10,02,8.50
2006,05,07,10,03,8.60
2006,05,07,10,04,8.60
2006,05,07,10,05,8.60
2006,05,07,10,06,8.60
2006,05,07,10,07,8.60
2006,05,07,10,08,8.70
2006,05,07,10,09,8.70
2006,05,07,10,10,8.70
2006,05,07,10,11,8.70
2006,05,07,10,12,8.70
2006,05,07,10,13,8.70
2006,05,07,10,14,8.70
2006,05,07,10,15,8.70
2006,05,07,10,16,8.80
2006,05,07,10,17,8.80
2006,05,07,10,18,8.80
2006,05,07,10,19,8.80
2006,05,07,10,20,8.90
2006,05,07,10,21,8.90
2006,05,07,10,22,9.00
2006,05,07,10,23,9.00
2006,05,07,10,24,9.00
2006,05,07,10,25,9.10
2006,05,07,10,26,9.10
2006,05,07,10,27,9.20
2006,05,07,10,28,9.20
2006,05,07,10,29,9.20
2006,05,07,10,30,9.20
2006,05,07,10,31,9.20
2006,05,07,10,32,9.30
2006,05,07,10,33,9.30
2006,05,07,10,34,9.30
2006,05,07,10,35,9.30
2006,05,07,10,36,9.30
2006,05,07,10,37,9.30
2006,05,07,10,38,9.40
2006,05,07,10,39,9.50
2006,05,07,10,40,9.50
2006,05,07,10,41,9.50
2006,05,07,10,42,9.50
2006,05,07,10,43,9.60
2006,05,07,10,44,9.70
2006,05,07,10,45,9.70
2006,05,07,10,46,9.70
2006,05,07,10,47,9.80
2006,05,07,10,48,9.90
2006,05,07,10,49,9.90
2006,05,07,10,50,9.90
2006,05,07,10,51,9.90
2006,05,07,10,52,9.90
2006,05,07,10,53,9.90
2006,05,07,10,54,9.90
2006,05,07,10,55,9.90
2006,05,07,10,56,10.10
2006,05,07,10,57,10.10
2006,05,07,10,58,10.10
2006,05,07,10,59,10.20
2006,05,07,11,00,10.30
2006,05,07,11,01,10.40
2006,05,07,11,02,10.50
2006,05,07,11,03,10.60
2006,05,07,11,04,10.70
2006,05,07,11,05,10.80
2006,05,07,11,06,10.80
2006,05,07,11,07,10.80
2006,05,07,11,08,10.80
2006,05,07,11,09,10.70
2006,05,07,11,10,10.60
2006,05,07,11,11,10.60
2006,05,07,11,12,10.60
2006,05,07,11,13,10.60
2006,05,07,11,14,10.60
2006,05,07,11,15,10.60
2006,05,07,11,16,10.60
2006,05,07,11,17,10.60
2006,05,07,11,18,10.60
2006,05,07,11,19,10.60
2006,05,07,11,20,10.60
2006,05,07,11,21,10.60
2006,05,07,11,22,10.60
2006,05,07,11,23,10.70
2006,05,07,11,24,10.70
2006,05,07,11,25,10.70
2006,05,07,11,26,10.70
2006,05,07,11,27,10.80
2006,05,07,11,28,10.90
2006,05,07,11,29,10.90
2006,05,07,11,30,11.10
2006,05,07,11,31,11.30
2006,05,07,11,32,11.40
2006,05,07,11,33,11.40
2006,05,07,11,34,11.40
2006,05,07,11,35,11.40
2006,05,07,11,36,11.40
2006,05,07,11,37,11.40
2006,05,07,11,38,11.40
2006,05,07,11,39,11.50
2006,05,07,11,40,11.60
2006,05,07,11,41,11.70
2006,05,07,11,42,11.70
2006,05,07,11,43,11.70
2006,05,07,11,44,11.70
2006,05,07,11,45,11.60
2006,05,07,11,46,11.60
2006,05,07,11,47,11.60
2006,05,07,11,48,11.60
2006,05,07,11,49,11.70
2006,05,07,11,50,11.80
2006,05,07,11,51,11.80
2006,05,07,11,52,11.80
2006,05,07,11,53,11.80
2006,05,07,11,54,11.90
2006,05,07,11,55,11.90
2006,05,07,11,56,11.80
2006,05,07,11,57,11.80
2006,05,07,11,58,11.80
2006,05,07,11,59,11.80
2006,05,07,12,00,11.80
2006,05,07,12,01,11.80
2006,05,07,12,02,11.80
2006,05,07,12,03,11.80
2006,05,07,12,04,11.80
2006,05,07,12,05,11.70
2006,05,07,12,06,11.70
2006,05,07,12,07,11.60
2006,05,07,12,08,11.60
2006,05,07,12,09,11.60
2006,05,07,12,10,11.30
2006,05,07,12,11,11.10
2006,05,07,12,12,11.10
2006,05,07,12,13,11.10
2006,05,07,12,14,11.00
2006,05,07,12,15,10.90
2006,05,07,12,16,11.00
2006,05,07,12,17,11.10
2006,05,07,12,18,11.10
2006,05,07,12,19,11.20
2006,05,07,12,20,11.40
2006,05,07,12,21,11.50
2006,05,07,12,22,11.70
2006,05,07,12,23,11.80
2006,05,07,12,24,11.80
2006,05,07,12,25,11.80
2006,05,07,12,26,11.80
2006,05,07,12,27,11.80
2006,05,07,12,28,11.80
2006,05,07,12,29,11.80
2006,05,07,12,30,11.80
2006,05,07,12,31,11.80
2006,05,07,12,32,11.80
2006,05,07,12,33,11.90
2006,05,07,12,34,12.10
2006,05,07,12,35,12.30
2006,05,07,12,36,12.40
2006,05,07,12,37,12.30
2006,05,07,12,38,12.20
2006,05,07,12,39,12.10
2006,05,07,12,40,12.20
2006,05,07,12,41,12.30
2006,05,07,12,42,12.30
2006,05,07,12,43,12.40
2006,05,07,12,44,12.20
2006,05,07,12,45,12.00
2006,05,07,12,46,11.90
2006,05,07,12,47,11.80
2006,05,07,12,48,11.80
2006,05,07,12,49,11.80
2006,05,07,12,50,12.00
2006,05,07,12,51,12.10
2006,05,07,12,52,12.20
2006,05,07,12,53,12.10
2006,05,07,12,54,12.10
2006,05,07,12,55,12.10
2006,05,07,12,56,12.20
2006,05,07,12,57,12.30
2006,05,07,12,58,12.30
2006,05,07,12,59,12.40
2006,05,07,13,00,12.50
2006,05,07,13,01,12.50
2006,05,07,13,02,12.40
2006,05,07,13,03,12.30
2006,05,07,13,04,12.40
2006,05,07,13,05,12.40
2006,05,07,13,06,12.40
2006,05,07,13,07,12.40
2006,05,07,13,08,12.30
2006,05,07,13,09,12.40
2006,05,07,13,10,12.40
2006,05,07,13,11,12.40
2006,05,07,13,12,12.30
2006,05,07,13,13,12.30
2006,05,07,13,14,12.30
2006,05,07,13,15,12.30
2006,05,07,13,16,12.40
2006,05,07,13,17,12.50
2006,05,07,13,18,12.50
2006,05,07,13,19,12.50
2006,05,07,13,20,12.50
2006,05,07,13,21,12.40
2006,05,07,13,22,12.30
2006,05,07,13,23,12.30
2006,05,07,13,24,12.30
2006,05,07,13,25,12.40
2006,05,07,13,26,12.40
2006,05,07,13,27,12.40
2006,05,07,13,28,12.50
2006,05,07,13,29,12.50
2006,05,07,13,30,12.60
2006,05,07,13,31,12.70
2006,05,07,13,32,12.80
2006,05,07,13,33,12.80
2006,05,07,13,34,12.70
2006,05,07,13,35,12.60
2006,05,07,13,36,12.60
2006,05,07,13,37,12.70
2006,05,07,13,38,12.70
2006,05,07,13,39,12.80
2006,05,07,13,40,12.90
2006,05,07,13,41,13.00
2006,05,07,13,42,13.10
2006,05,07,13,43,13.10
2006,05,07,13,44,13.10
2006,05,07,13,45,13.10
2006,05,07,13,46,13.00
2006,05,07,13,47,12.90
2006,05,07,13,48,12.90
2006,05,07,13,49,12.90
2006,05,07,13,50,12.90
2006,05,07,13,51,12.90
2006,05,07,13,52,12.90
2006,05,07,13,53,12.90
2006,05,07,13,54,12.90
2006,05,07,13,55,12.80
2006,05,07,13,56,12.60
2006,05,07,13,57,12.60
2006,05,07,13,58,12.60
2006,05,07,13,59,12.60
2006,05,07,14,00,12.60
2006,05,07,14,01,12.60
2006,05,07,14,02,12.60
2006,05,07,14,03,12.70
2006,05,07,14,04,12.70
2006,05,07,14,05,12.70
2006,05,07,14,06,12.60
2006,05,07,14,07,12.50
2006,05,07,14,08,12.40
2006,05,07,14,09,12.50
2006,05,07,14,10,12.50
2006,05,07,14,11,12.60
2006,05,07,14,12,12.60
2006,05,07,14,13,12.70
2006,05,07,14,14,12.70
2006,05,07,14,15,12.70
2006,05,07,14,16,12.70
2006,05,07,14,17,12.80
2006,05,07,14,18,13.00
2006,05,07,14,19,13.30
2006,05,07,14,20,13.20
2006,05,07,14,21,13.10
2006,05,07,14,22,12.90
2006,05,07,14,23,12.80
2006,05,07,14,24,12.70
2006,05,07,14,25,12.60
2006,05,07,14,26,12.50
2006,05,07,14,27,12.50
2006,05,07,14,28,12.40
2006,05,07,14,29,12.40
2006,05,07,14,30,12.40
2006,05,07,14,31,12.40
2006,05,07,14,32,12.50
2006,05,07,14,33,12.60
2006,05,07,14,34,12.70
2006,05,07,14,35,12.80
2006,05,07,14,36,12.80
2006,05,07,14,37,12.80
2006,05,07,14,38,12.80
2006,05,07,14,39,12.80
2006,05,07,14,40,12.80
2006,05,07,14,41,12.70
2006,05,07,14,42,12.70
2006,05,07,14,43,12.80
2006,05,07,14,44,12.80
2006,05,07,14,45,12.80
2006,05,07,14,46,12.80
2006,05,07,14,47,12.80
2006,05,07,14,48,12.80
2006,05,07,14,49,12.70
2006,05,07,14,50,12.80
2006,05,07,14,51,12.70
2006,05,07,14,52,12.70
2006,05,07,14,53,12.70
2006,05,07,14,54,12.80
2006,05,07,14,55,12.70
2006,05,07,14,56,12.60
2006,05,07,14,57,12.60
2006,05,07,14,58,12.60
2006,05,07,14,59,12.60
2006,05,07,15,00,12.50
2006,05,07,15,01,12.40
2006,05,07,15,02,12.20
2006,05,07,15,03,12.20
2006,05,07,15,04,12.20
2006,05,07,15,05,12.30
2006,05,07,15,06,12.30
2006,05,07,15,07,12.30
2006,05,07,15,08,12.30
2006,05,07,15,09,12.30
2006,05,07,15,10,12.20
2006,05,07,15,11,12.20
2006,05,07,15,12,12.10
2006,05,07,15,13,12.00
2006,05,07,15,14,12.00
2006,05,07,15,15,11.90
2006,05,07,15,16,11.90
2006,05,07,15,17,11.90
2006,05,07,15,18,11.90
2006,05,07,15,19,11.90
2006,05,07,15,20,11.80
2006,05,07,15,21,11.80
2006,05,07,15,22,11.80
2006,05,07,15,23,11.80
2006,05,07,15,24,11.80
2006,05,07,15,25,11.80
2006,05,07,15,26,11.90
2006,05,07,15,27,12.00
2006,05,07,15,28,12.00
2006,05,07,15,29,11.90
2006,05,07,15,30,11.80
2006,05,07,15,31,11.80
2006,05,07,15,32,11.70
2006,05,07,15,33,11.70
2006,05,07,15,34,11.60
2006,05,07,15,35,11.60
2006,05,07,15,36,11.60
2006,05,07,15,37,11.60
2006,05,07,15,38,11.60
2006,05,07,15,39,11.60
2006,05,07,15,40,11.60
2006,05,07,15,41,11.40
2006,05,07,15,42,11.40
2006,05,07,15,43,11.20
2006,05,07,15,44,11.10
2006,05,07,15,45,11.20
2006,05,07,15,46,11.30
2006,05,07,15,47,11.30
2006,05,07,15,48,11.30
2006,05,07,15,49,11.30
2006,05,07,15,50,11.30
2006,05,07,15,51,11.30
2006,05,07,15,52,11.40
2006,05,07,15,53,11.40
2006,05,07,15,54,11.40
2006,05,07,15,55,11.40
2006,05,07,15,56,11.30
2006,05,07,15,57,11.30
2006,05,07,15,58,11.30
2006,05,07,15,59,11.30
2006,05,07,16,00,11.40
2006,05,07,16,01,11.40
2006,05,07,16,02,11.60
2006,05,07,16,03,11.60
2006,05,07,16,04,11.60
2006,05,07,16,05,11.60
2006,05,07,16,06,11.50
2006,05,07,16,07,11.40
2006,05,07,16,08,11.40
2006,05,07,16,09,11.50
2006,05,07,16,10,11.60
2006,05,07,16,11,11.60
2006,05,07,16,12,11.60
2006,05,07,16,13,11.50
2006,05,07,16,14,11.30
2006,05,07,16,15,11.20
2006,05,07,16,16,11.10
2006,05,07,16,17,11.10
2006,05,07,16,18,11.10
2006,05,07,16,19,11.10
2006,05,07,16,20,11.10
2006,05,07,16,21,11.20
2006,05,07,16,22,11.20
2006,05,07,16,23,11.20
2006,05,07,16,24,11.30
2006,05,07,16,25,11.40
2006,05,07,16,26,11.50
2006,05,07,16,27,11.60
2006,05,07,16,28,11.70
2006,05,07,16,29,11.60
2006,05,07,16,30,11.60
2006,05,07,16,31,11.60
2006,05,07,16,32,11.60
2006,05,07,16,33,11.60
2006,05,07,16,34,11.60
2006,05,07,16,35,11.60
2006,05,07,16,36,11.60
2006,05,07,16,37,11.70
2006,05,07,16,38,11.80
2006,05,07,16,39,11.80
2006,05,07,16,40,11.80
2006,05,07,16,41,11.80
2006,05,07,16,42,11.80
2006,05,07,16,43,11.80
2006,05,07,16,44,11.80
2006,05,07,16,45,11.80
2006,05,07,16,46,11.80
2006,05,07,16,47,11.80
2006,05,07,16,48,11.80
2006,05,07,16,49,11.80
2006,05,07,16,50,11.80
2006,05,07,16,51,11.80
2006,05,07,16,52,11.80
2006,05,07,16,53,11.80
2006,05,07,16,54,11.80
2006,05,07,16,55,11.80
2006,05,07,16,56,11.80
2006,05,07,16,57,11.90
2006,05,07,16,58,11.80
2006,05,07,16,59,11.80
2006,05,07,17,00,11.70
2006,05,07,17,01,11.60
2006,05,07,17,02,11.60
2006,05,07,17,03,11.70
2006,05,07,17,04,11.80
2006,05,07,17,05,11.80
2006,05,07,17,06,11.90
2006,05,07,17,07,12.00
2006,05,07,17,08,12.00
2006,05,07,17,09,11.90
2006,05,07,17,10,11.80
2006,05,07,17,11,11.80
2006,05,07,17,12,11.70
2006,05,07,17,13,11.60
2006,05,07,17,14,11.60
2006,05,07,17,15,11.60
2006,05,07,17,16,11.50
2006,05,07,17,17,11.40
2006,05,07,17,18,11.40
2006,05,07,17,19,11.40
2006,05,07,17,20,11.30
2006,05,07,17,21,11.30
2006,05,07,17,22,11.30
2006,05,07,17,23,11.30
2006,05,07,17,24,11.30
2006,05,07,17,25,11.20
2006,05,07,17,26,11.20
2006,05,07,17,27,11.20
2006,05,07,17,28,11.10
2006,05,07,17,29,11.20
2006,05,07,17,30,11.20
2006,05,07,17,31,11.20
2006,05,07,17,32,11.30
2006,05,07,17,33,11.30
2006,05,07,17,34,11.30
2006,05,07,17,35,11.30
2006,05,07,17,36,11.20
2006,05,07,17,37,11.20
2006,05,07,17,38,11.20
2006,05,07,17,39,11.30
2006,05,07,17,40,11.30
2006,05,07,17,41,11.20
2006,05,07,17,42,11.10
2006,05,07,17,43,11.00
2006,05,07,17,44,10.90
2006,05,07,17,45,10.90
2006,05,07,17,46,10.90
2006,05,07,17,47,11.00